Location: Newark
(48.5667°N, 12.8167°E)
Time: 02:35:11
(UTC+00:00)

METEOR M2 - Pass Details

Date: 19 November 2019
Orbit: 818 x 828 km, 98.5° (Epoch: 10 December)

Event Time Altitude Azimuth Distance (km) Brightness Sun altitude
Exits shadow 19:57:25 11° 326° (NW) 2,392 ? -44.3°
Drops below altitude 10° 19:57:32 10° 326° (NNW) 2,434 ? -44.3°
Sets 20:00:12 0° 338° (NNW) 3,372 ? -44.7°
